Regional Weather Roundup
Issued by NWS

Home | Current Version | Previous Version | Text Only | Print | Product List | Glossary Off
Versions: 1 2 3 4 5 6 7 8 9 10 11 12 13 14 15 16 17 18 19 20 21 22 23 24 25 26 27 28 29 30 31 32 33 34 35 36 37 38 39 40 41 42 43 44 45 46 47 48 49 50

000
ASUS44 KMEG 281400
RWRTN
TENNESSEE HOURLY STATE WEATHER ROUNDUP
NATIONAL WEATHER SERVICE MEMPHIS TN
900 AM CDT FRI AUG 28 2015

TNZ002-004-019-021-049-052-054-088>092-281500-
WEST TENNESSEE

CITY           SKY/WX    TMP DP  RH WIND       PRES   REMARKS
MEMPHIS INTL   MOSUNNY   74  60  61 E3        30.09R
NWS MEMPHIS      N/A     72 N/A N/A MISG        N/A
JACKSON        MOSUNNY   69  61  75 E3        30.11R
DYERSBURG      SUNNY    N/A N/A N/A MISG        N/A
UNION CITY     SUNNY     66  64  94 E3        30.11R
PARIS          SUNNY     70  59  68 E5        30.13S
LEXINGTON      SUNNY     70  63  78 NE3       30.10S
$$

TNZ008-025-027-028-033-062-065-066-281500-
NORTH MIDDLE TENNESSEE

CITY           SKY/WX    TMP DP  RH WIND       PRES   REMARKS
NASHVILLE      MOSUNNY   71  59  65 CALM      30.15R
CLARKSVILLE    MOSUNNY   68  59  73 E6        30.14S
COOKEVILLE     SUNNY     73  64  73 CALM      30.17R
CROSSVILLE     SUNNY     74  62  66 SE7       30.21S
$$

TNZ061-075-076-078-094-096-097-281500-
SOUTH MIDDLE TENNESSEE

CITY           SKY/WX    TMP DP  RH WIND       PRES   REMARKS
FAYETTEVILLE   SUNNY     72  63  73 CALM      30.15R
TULLAHOMA      SUNNY     73  63  68 SE6       30.16S
WINCHESTER     SUNNY     73  64  73 E8        30.15S
COLUMBIA       SUNNY     70  66  88 CALM      30.12R
SHELBYVILLE    SUNNY     73  64  73 CALM      30.15S
$$

TNZ017-018-042-046-047-281500-
NORTHEAST TENNESSEE

CITY           SKY/WX    TMP DP  RH WIND       PRES   REMARKS
TRI CITIES     MOSUNNY   70  61  73 CALM      30.23R
ELIZABETHTON   MOSUNNY   72  61  68 E3        30.23R
$$

TNZ012-013-036-069-073-074-281500-
CENTRAL EAST TENNESSEE

CITY           SKY/WX    TMP DP  RH WIND       PRES   REMARKS
KNOXVILLE      MOSUNNY   72  62  71 E6        30.18R
OAK RIDGE      SUNNY     72  61  68 CALM      30.19S
GATLINBURG     MOSUNNY   68  61  77 CALM      30.19R
$$

TNZ083-085-099-281500-
SOUTHEAST TENNESSEE

CITY           SKY/WX    TMP DP  RH WIND       PRES   REMARKS
CHATTANOOGA    PTSUNNY   73  63  70 N7        30.18R
$$

SKY/WX REPORTED AS FAIR MEANS FEW OR NO CLOUDS BELOW
12 THOUSAND FEET.



USA.gov is the U.S. government's official web portal to all federal, state and local government web resources and services.